Regional Weather Roundup
Issued by NWS

Home | Current Version | Previous Version | Text Only | Print | Product List | Glossary Off
Versions: 1 2 3 4 5 6 7 8 9 10 11 12 13 14 15 16 17 18 19 20 21 22 23 24 25 26 27 28 29 30 31 32 33 34 35 36 37 38 39 40 41 42 43 44 45 46 47 48 49 50

853
ASUS43 KDTX 301901
RWRMI
MICHIGAN HOURLY REGIONAL WEATHER ROUNDUP
NATIONAL WEATHER SERVICE DETROIT/PONTIAC MI
300 PM EDT SAT APR 30 2016

NOTE: "FAIR" INDICATES FEW OR NO CLOUDS BELOW 12,000 FEET WITH NO
SIGNIFICANT WEATHER AND/OR OBSTRUCTION TO VISIBILITY.

MIZ047>049-052>055-059>063-066>070-074>076-081>083-302000-
SOUTHEAST LOWER MICHIGAN

CITY           SKY/WX    TMP DP  RH WIND       PRES   REMARKS
ADRIAN         LGT RAIN  49  42  77 E12       30.08F
ALMA           CLOUDY    56  36  47 E3        30.09F
ANN ARBOR      CLOUDY    53  41  63 E9        30.09F
BAD AXE        CLOUDY    56  35  46 E8        30.14F
CARO           CLOUDY    58  32  37 E9        30.10F
DETROIT CITY   CLOUDY    52  42  69 E10       30.11F
DETROIT        CLOUDY    54  42  64 E9        30.10F
FLINT          CLOUDY    61  37  41 E10       30.08F
GROSSE ILE     CLOUDY    52  45  76 E9        30.09F
HILLSDALE      LGT RAIN  48  43  81 E13       30.05F
HOWELL         CLOUDY    55  35  45 SE9       30.08F

CITY           SKY/WX    TMP DP  RH WIND       PRES   REMARKS
JACKSON        LGT RAIN  51  41  68 SE9       30.06F
LAMBERTVILLE   LGT RAIN  48  43  81 E8        30.09F
LANSING        CLOUDY    56  34  43 E12       30.07F
LAPEER         FAIR      58  35  42 E9        30.10F
MASON          CLOUDY    54  35  48 E8        30.07F
MONROE         LGT RAIN  47  45  90 E8        30.10F
PONTIAC        CLOUDY    55  37  50 E10G18    30.08F
PORT HOPE        N/A     45  38  76 NE6       30.15F
PORT HURON     CLOUDY    59  41  51 NE6       30.12F
TRI CITIES     CLOUDY    58  37  45 NE17      30.11F
MIDLAND        CLOUDY    57  35  43 E13       30.11F
TROY           CLOUDY    56  38  52 E10       30.12F
SAGINAW HB     CLOUDY    57  37  47 N10       30.09F
$$
MIZ043>046-050>051-056>058-064>065-071>073-077>080-302000-
SOUTHWEST LOWER MICHIGAN

CITY           SKY/WX    TMP DP  RH WIND       PRES   REMARKS
BATTLE CREEK   LGT RAIN  50  39  66 E9        30.05F
BENTON HARBOR  LGT RAIN  49  43  80 E12       30.01F
BIG RAPIDS     CLOUDY    55  31  39 E14       30.08F
COLDWATER      LGT RAIN  49  44  81 E9        30.04F
FREMONT        FAIR      55  30  37 E7        30.06F
HOLLAND        LGT RAIN  51  40  65 E8        30.05F
GRAND RAPIDS   CLOUDY    55  37  50 E12       30.06F
IONIA          FAIR      55  35  47 E8        30.06F
KALAMAZOO      LGT RAIN  50  39  66 E7        30.05F
LUDINGTON      CLOUDY    57  33  41 E8        30.08F
MARSHALL       LGT RAIN  50  39  65 E7        30.05F
MOUNT PLEASANT CLOUDY    58  32  36 E13       30.09F
MUSKEGON       CLOUDY    55  32  41 E10       30.06F
$$
MIZ016>042-302000-
NORTHERN LOWER MICHIGAN

CITY           SKY/WX    TMP DP  RH WIND       PRES   REMARKS
ALPENA         CLOUDY    57  25  29 E10G16    30.17F
BEAVER ISLAND  MOSUNNY   56  27  33 NE12      30.16F
BELLAIRE       CLOUDY    63  24  23 NE7       30.10F
CADILLAC       PTSUNNY   56  32  40 SE13G21   30.09F
CHARLEVOIX     CLOUDY    51  34  52 N13       30.15F
FRANKFORT      MOSUNNY   56  36  46 N8        30.10S
GAYLORD        CLOUDY    59  27  29 NE9       30.11F
HARBOR SPRINGS MOSUNNY   61  29  29 NE12G20   30.12F
HOUGHTON LAKE  CLOUDY    58  32  37 E14       30.11F
MANISTEE       PTSUNNY   55  34  44 NW7       30.09F
OSCODA         PTSUNNY   54  28  37 E8        30.16F
PELLSTON       SUNNY     59  24  26 E18G26    30.16F
ROGERS CITY    MOSUNNY   48  35  59 NE6       30.19F
TRAVERSE CITY  CLOUDY    52  36  54 NE6       30.10F
$$
MIZ007>008-015-302000-
EASTERN UPPER MICHIGAN

CITY           SKY/WX    TMP DP  RH WIND       PRES   REMARKS
KINROSS          N/A     59  27  29 NE9       30.16F
MACKINAC ISLAN SUNNY     52  26  36 E10       30.18F
NEWBERRY       CLOUDY    55  32  41 N9        30.16F
S. S. MARIE    SUNNY     60  29  30 CALM      30.16F
MUNISING         N/A     41  36  82 N12       30.21F
$$
MIZ004>006-011>014-085-302000-
CENTRAL UPPER MICHIGAN

CITY           SKY/WX    TMP DP  RH WIND       PRES   REMARKS
MANISTIQUE     CLOUDY    56  25  29 SE8       30.15F
ESCANABA       CLOUDY    55  28  35 SE8       30.15F
MENOMINEE      PTSUNNY   50  28  43 E14G21    30.15R
SAWYER-GWINN   SUNNY     45  34  65 NE15G21   30.21F
$$
MIZ001>003-009>011-084-302000-
WESTERN UPPER MICHIGAN

CITY           SKY/WX    TMP DP  RH WIND       PRES   REMARKS
IRON MOUNTAIN  CLOUDY    57  31  37 NE14      30.12F
HOUGHTON       MOSUNNY   50  32  50 NE13G20   30.23F
COPPER HARBOR    N/A     42  37  82 NE7       30.27F
IRONWOOD         N/A     48  32  53 NE12G18   30.16F
$$

ABBREVIATIONS USED IN REMARKS
   TC - TEMPERATURE IN CELSIUS
  WCI - WIND CHILL INDEX
   HX - HEAT INDEX
  VSB - VISIBILITY





USA.gov is the U.S. government's official web portal to all federal, state and local government web resources and services.